Powrót do katalogu

STARLINK-3235

AktywnyŁącznośćVLEO
NORAD 50200·PAYLOAD·🇺🇸 United States

Wystrzelony Dec 18, 2021 z Vandenberg Space Force Base

Loading…

Następne Przeloty (najbliższe 24 godziny)

TLE

ŚwieżeSource: CelesTrak SupGP

Epoka: Sep 14, 2026, 13:15 UTC

1 50200C 21125AW  26257.55256944  .00028126  00000+0  85342-3 0  2570
2 50200  53.1590 101.8072 0001049 112.9832 209.3013 15.33536558    14

Śledź STARLINK-3235 w czasie rzeczywistym z AllMySat

Download on the App Store